Location: Belmont
(13.0833°N, 59.6000°W)
Time: 03:48:49
(UTC+00:00)

Cosmos 2074 Rocket - Pass Details

Date: 17 September 2019
Orbit: 966 x 987 km, 82.9° (Epoch: 18 October)

Event Time Altitude Azimuth Distance (km) Brightness Sun altitude
Rises 23:18:43 0° 354° (N) 3,656 7.2 -20.4°
Reaches altitude 10° 23:21:14 10° 353° (N) 2,706 6.5 -21.0°
Maximum altitude 23:27:25 80° 267° (W) 984 4.0 -22.5°
Drops below altitude 10° 23:33:35 10° 181° (S) 2,698 6.2 -24.0°
Sets 23:36:05 0° 180° (S) 3,644 6.9 -24.6°
